Weather History for Abadan, Iran

Change the Weather History Date:

Tuesday, October 15, 2013

  Actual Average Record
Temperature  
Mean Temperature 78 °F -  
Max Temperature 95 °F 88 °F - ()
Min Temperature 60 °F 60 °F - ()
Cooling Degree Days 12    
Growing Degree Days 28 (Base 50)    
Moisture  
Dew Point 48 °F    
Average Humidity 44    
Maximum Humidity 88    
Minimum Humidity 6    
Precipitation  
Precipitation 0.00 in 0.02 in - ()
Sea Level Pressure  
Sea Level Pressure 29.89 in    
Wind  
Wind Speed 0 mph ()    
Max Wind Speed 7 mph    
Max Gust Speed -    
Visibility 4.0 miles    
Events      
T = Trace of Precipitation, MM = Missing Value Source: Averaged Metar Reports

Daily Weather History Graph

Daily Weather History Graph

Search for Another Location

Airport:

Trip Planner

Search our weather history database for the weather conditions in past years. The results will help you decide how hot, cold, wet, or windy it might be!

Date:

Astronomy

Oct. 15, 2013 Rise Set
Actual Time 6:19 AM IRST 5:46 PM IRST
Civil Twilight 5:54 AM IRST 6:10 PM IRST
Nautical Twilight 5:26 AM IRST 6:38 PM IRST
Astronomical Twilight 4:59 AM IRST 7:05 PM IRST
Moon 3:24 PM IRST (10/15) 2:31 AM IRST (10/15)
Length of Visible Light 12h 15m
Length of Day
11h 26m
Waxing Gibbous, 85% of the Moon is Illuminated
Oct 15
Waxing Gibbous
Oct 19
Full
Oct 27
Last Quarter
Nov 3
New
Nov 10
First Quarter

Hourly Weather History & Observations

Time (IRST) Temp. Dew Point Humidity Pressure Visibility Wind Dir Wind Speed Gust Speed Precip Events Conditions
12:30 AM 66.2 °F 55.4 °F 68% 29.89 in - Calm Calm - N/A   Clear
1:30 AM 64.4 °F 59.0 °F 83% 29.89 in - Calm Calm - N/A   Clear
2:30 AM 62.6 °F 59.0 °F 88% 29.89 in - Calm Calm - N/A   Clear
3:30 AM 63 °F 59 °F 83% 29.90 in 6 mi Calm Calm - -  
3:30 AM 62.6 °F 59.0 °F 88% 29.89 in - Calm Calm - N/A   Clear
4:30 AM 60.8 °F 53.6 °F 77% 29.89 in - Calm Calm - N/A   Haze
5:30 AM 62.6 °F 59.0 °F 88% 29.89 in 2.5 mi Calm Calm - N/A   Clear
6:30 AM 62.6 °F 57.2 °F 82% 29.89 in 1.2 mi Calm Calm - N/A   Clear
7:30 AM 64.4 °F 57.2 °F 77% 29.92 in 1.6 mi Calm Calm - N/A   Clear
8:30 AM 71.6 °F 55.4 °F 57% 29.92 in 3.7 mi ENE 4.6 mph - N/A   Clear
9:30 AM 77 °F 60 °F 46% 29.94 in 4 mi Calm Calm - -   Haze
9:30 AM 77.0 °F 60.8 °F 57% 29.92 in 4.3 mi Calm Calm - N/A   Clear
10:30 AM 82.4 °F 51.8 °F 35% 29.92 in 5.0 mi Calm Calm - N/A   Clear
11:30 AM 87.8 °F 46.4 °F 24% 29.89 in - Calm Calm - N/A   Clear
12:00 PM 89.6 °F 44.6 °F 21% 29.89 in - Calm Calm - N/A   Clear
12:30 PM 91.4 °F 42.8 °F 18% 29.89 in - Calm Calm - N/A   Clear
1:30 PM 95.0 °F 39.2 °F 14% 29.86 in - WSW 4.6 mph - N/A   Clear
2:30 PM 93.2 °F 33.8 °F 12% 29.86 in - NW 6.9 mph - N/A   Clear
3:30 PM 94 °F 35 °F 6% 29.87 in 6 mi Calm Calm - -  
3:30 PM 93.2 °F 35.6 °F 13% 29.86 in - Calm Calm - N/A   Clear
4:30 PM 93.2 °F 32.0 °F 11% 29.86 in - NNE 4.6 mph - N/A   Clear
5:30 PM 91.4 °F 33.8 °F 13% 29.86 in - Calm Calm - N/A   Clear
6:30 PM 86.0 °F 39.2 °F 19% 29.86 in - Calm Calm - N/A   Clear
7:30 PM 77.0 °F 39.2 °F 26% 29.86 in - Calm Calm - N/A   Clear
8:00 PM 75.2 °F 39.2 °F 27% 29.89 in - Calm Calm - N/A   Clear
8:30 PM 75.2 °F 42.8 °F 31% 29.89 in - Calm Calm - N/A   Clear
9:00 PM 73.4 °F 42.8 °F 33% 29.89 in - Calm Calm - N/A   Clear
9:30 PM 73 °F 49 °F 32% 29.91 in 6 mi Calm Calm - -  
9:30 PM 73.4 °F 50.0 °F 44% 29.89 in - Calm Calm - N/A   Clear
10:00 PM 71.6 °F 48.2 °F 43% 29.89 in - Calm Calm - N/A   Clear
10:30 PM 71.6 °F 48.2 °F 43% 29.89 in - Calm Calm - N/A   Clear
11:30 PM 68.0 °F 48.2 °F 49% 29.89 in - Calm Calm - N/A   Clear